Terminal Aerodrome Forecast
Issued by NWS

Current Version | Previous Version | Graphics & Text | Print | Product List | Glossary On
Versions: 1 2 3 4 5 6 7 8 9 10 11 12 13 14 15 16 17 18 19 20 21 22 23 24 25 26 27 28 29 30 31 32
000
FTUS41 KILN 171500 AAB
TAFLUK
TAF AMD
KLUK 171500Z 1715/1812 VRB03KT P6SM VCSH BKN080 OVC130
     FM171800 18006KT P6SM -RA VCTS OVC035CB
     FM180300 00000KT 5SM -RA BR OVC060
     FM180900 00000KT 3SM -RA BR OVC028=

USA.gov is the U.S. government's official web portal to all federal, state and local government web resources and services.